Total_Precipitation_Accumulation
0.26 0.39 0.88 1.05 1.14 1.18 1.17 1.11 1.00 0.93 0.94 1.07 1.12 1.08 0.98 0.92 0.93 0.91 0.88 0.87 0.97 1.18 1.33 1.36 1.29 1.22 1.11 1.00 0.87 0.67 0.58 0.49 0.46 0.44 0.43 0.50 0.58 0.60 0.50 0.47 0.53 0.51 0.66
0.24 0.35 0.78 1.09 1.22 1.24 1.24 1.16 0.99 0.88 0.91 1.00 1.13 1.17 1.14 1.03 0.95 0.98 0.97 0.96 1.12 1.28 1.35 1.39 1.23 1.11 0.99 0.83 0.65 0.49 0.42 0.30 0.25 0.21 0.18 0.26 0.42 0.54 0.48 0.46 0.51 0.61 0.67
0.30 0.40 0.72 1.11 1.31 1.34 1.32 1.23 1.05 0.91 0.93 0.94 1.08 1.18 1.23 1.18 1.14 1.12 1.11 1.13 1.23 1.26 1.26 1.23 1.17 1.04 0.83 0.66 0.52 0.40 0.32 0.23 0.18 0.15 0.17 0.28 0.39 0.57 0.57 0.52 0.56 0.69 0.67
0.36 0.49 0.75 1.15 1.38 1.42 1.31 1.22 1.10 0.99 0.92 0.91 0.97 1.08 1.21 1.26 1.29 1.26 1.25 1.27 1.24 1.18 1.15 1.09 0.94 0.86 0.74 0.55 0.45 0.39 0.29 0.22 0.17 0.16 0.25 0.33 0.38 0.73 0.84 0.73 0.68 0.70 0.65
0.43 0.60 0.93 1.32 1.48 1.50 1.41 1.33 1.24 1.08 0.94 0.95 0.98 0.99 1.09 1.20 1.32 1.46 1.46 1.38 1.29 1.10 1.03 0.99 0.85 0.78 0.72 0.60 0.48 0.40 0.32 0.23 0.16 0.19 0.30 0.38 0.51 0.97 0.96 0.85 0.78 0.75 0.68
0.61 0.83 1.10 1.40 1.53 1.51 1.48 1.44 1.39 1.21 1.08 1.12 1.11 1.05 1.07 1.12 1.25 1.44 1.49 1.38 1.24 1.09 1.06 0.95 0.86 0.79 0.73 0.64 0.55 0.44 0.35 0.22 0.16 0.22 0.31 0.38 0.55 0.98 0.95 0.82 0.80 0.79 0.76
0.84 1.03 1.24 1.47 1.60 1.57 1.55 1.54 1.51 1.45 1.37 1.33 1.26 1.16 1.13 1.12 1.18 1.25 1.26 1.17 1.13 1.07 1.03 1.01 0.92 0.86 0.80 0.68 0.62 0.48 0.36 0.20 0.17 0.25 0.31 0.39 0.62 0.96 0.95 0.84 0.85 0.86 0.84
1.12 1.28 1.41 1.63 1.74 1.68 1.60 1.55 1.56 1.64 1.62 1.54 1.45 1.35 1.24 1.23 1.20 1.13 1.09 1.01 1.01 1.03 1.03 1.00 0.92 0.85 0.80 0.70 0.64 0.57 0.37 0.17 0.16 0.20 0.26 0.39 0.62 0.90 0.92 0.83 0.83 0.87 0.88
1.51 1.64 1.80 1.83 1.77 1.79 1.75 1.68 1.62 1.66 1.69 1.70 1.59 1.51 1.36 1.30 1.23 1.10 1.01 1.00 0.98 0.97 0.96 0.94 0.93 0.82 0.75 0.67 0.58 0.50 0.34 0.18 0.17 0.21 0.24 0.36 0.62 0.98 1.00 0.88 0.81 0.81 0.83
2.00 2.07 2.19 2.21 2.05 1.94 1.83 1.78 1.72 1.67 1.75 1.80 1.68 1.42 1.24 1.20 1.21 1.10 0.91 0.97 1.02 0.95 0.91 0.86 0.88 0.86 0.71 0.62 0.54 0.47 0.34 0.23 0.19 0.21 0.28 0.37 0.61 0.96 1.01 0.89 0.87 0.84 0.84
2.46 2.45 2.42 2.47 2.42 2.28 2.13 1.90 1.88 1.83 1.83 1.77 1.64 1.44 1.31 1.28 1.17 1.05 0.80 0.77 0.91 0.91 0.87 0.83 0.81 0.82 0.69 0.57 0.52 0.42 0.33 0.26 0.25 0.28 0.29 0.43 0.71 0.88 0.98 0.93 0.89 0.89 0.91
2.60 2.67 2.63 2.62 2.63 2.55 2.38 2.25 2.12 1.95 1.91 1.79 1.55 1.42 1.41 1.33 1.24 1.05 0.90 0.79 0.86 0.88 0.92 0.89 0.81 0.77 0.69 0.56 0.56 0.49 0.38 0.31 0.31 0.31 0.34 0.49 0.74 0.87 0.92 0.93 0.94 0.92 0.91
2.84 2.99 2.98 2.92 2.98 3.01 2.79 2.53 2.40 2.16 1.96 1.95 1.71 1.56 1.47 1.52 1.49 1.38 1.16 1.01 1.00 0.91 0.90 0.91 0.82 0.65 0.57 0.52 0.51 0.45 0.42 0.39 0.35 0.34 0.41 0.47 0.68 0.87 0.89 0.94 0.96 0.99 1.04
3.00 3.21 3.44 3.38 3.31 3.32 3.12 2.81 2.57 2.38 2.13 2.01 1.95 1.78 1.66 1.59 1.52 1.45 1.25 1.06 1.01 0.90 0.86 0.92 0.85 0.67 0.60 0.53 0.52 0.51 0.49 0.45 0.39 0.39 0.43 0.44 0.56 0.82 0.98 1.09 1.06 1.01 1.12
2.87 3.18 3.56 3.55 3.44 3.34 3.18 2.92 2.62 2.50 2.32 2.16 2.20 2.12 1.90 1.73 1.64 1.57 1.48 1.28 1.15 1.01 0.88 0.88 0.95 0.85 0.78 0.72 0.62 0.55 0.53 0.50 0.45 0.42 0.41 0.44 0.48 0.70 0.92 1.06 1.10 1.17 1.23
2.88 3.06 3.41 3.54 3.42 3.37 3.20 2.94 2.63 2.42 2.32 2.28 2.14 2.06 2.05 1.88 1.78 1.75 1.62 1.43 1.29 1.14 0.98 0.89 0.92 0.95 0.91 0.87 0.79 0.70 0.66 0.59 0.52 0.48 0.43 0.45 0.49 0.57 0.77 0.92 1.04 1.20 1.41
2.91 3.12 3.25 3.47 3.57 3.39 3.31 3.03 2.70 2.59 2.39 2.26 2.16 2.00 2.00 1.99 1.90 1.90 1.78 1.55 1.42 1.38 1.25 1.14 1.12 1.11 1.02 0.89 0.81 0.78 0.75 0.67 0.60 0.57 0.52 0.49 0.48 0.52 0.66 0.84 0.95 1.14 1.36
2.95 3.18 3.24 3.31 3.46 3.44 3.38 3.27 2.84 2.60 2.53 2.34 2.25 2.12 2.01 2.02 2.04 2.07 1.95 1.72 1.71 1.78 1.64 1.44 1.34 1.25 1.10 0.99 0.89 0.87 0.80 0.74 0.64 0.60 0.58 0.53 0.49 0.50 0.62 0.84 0.94 1.05 1.21
2.86 3.14 3.32 3.32 3.36 3.55 3.54 3.49 3.34 2.95 2.60 2.55 2.51 2.28 2.02 1.97 2.03 2.04 2.03 1.94 1.96 2.00 1.93 1.74 1.61 1.52 1.31 1.18 1.09 1.06 1.03 0.95 0.85 0.74 0.67 0.67 0.64 0.63 0.75 0.95 1.04 1.04 1.06
2.84 3.09 3.33 3.35 3.33 3.61 3.84 3.76 3.62 3.39 2.85 2.54 2.49 2.36 2.17 2.03 1.99 1.98 1.95 2.06 2.13 2.12 2.06 2.00 1.85 1.75 1.63 1.51 1.42 1.29 1.26 1.20 1.04 0.86 0.76 0.75 0.76 0.79 0.89 0.95 0.98 1.06 1.08
2.74 2.96 3.17 3.28 3.26 3.35 3.57 3.57 3.40 3.20 2.98 2.62 2.41 2.37 2.31 2.22 2.21 2.13 1.96 2.03 2.17 2.07 1.96 2.03 2.10 2.08 1.98 1.85 1.78 1.60 1.48 1.36 1.20 0.96 0.80 0.77 0.79 0.85 0.90 0.93 0.97 0.89 0.79
2.41 2.77 3.00 3.20 3.35 3.23 3.12 3.24 3.30 3.28 3.14 2.89 2.67 2.58 2.41 2.28 2.22 2.22 2.20 2.14 2.24 2.25 2.16 2.11 2.18 2.27 2.17 2.13 2.08 1.99 1.78 1.63 1.34 1.07 0.91 0.84 0.82 0.87 0.89 0.88 0.88 0.85 0.74
2.09 2.43 2.72 2.94 3.20 3.33 3.26 3.38 3.42 3.39 3.25 3.00 2.73 2.58 2.45 2.36 2.29 2.20 2.24 2.28 2.29 2.33 2.26 2.19 2.18 2.24 2.27 2.19 2.12 2.23 1.96 1.62 1.37 1.20 1.01 0.91 0.89 0.90 0.92 0.93 0.90 0.87 0.81
1.88 2.12 2.36 2.69 2.96 3.21 3.35 3.27 3.18 3.14 2.94 2.74 2.70 2.79 2.70 2.48 2.35 2.31 2.25 2.24 2.31 2.30 2.25 2.30 2.34 2.23 2.26 2.27 2.22 2.05 1.84 1.58 1.48 1.34 1.18 1.08 1.00 0.95 0.95 0.95 0.91 0.86 0.86
1.67 1.93 2.10 2.35 2.65 2.85 2.89 2.92 2.95 2.93 2.87 2.80 2.83 2.82 2.81 2.58 2.36 2.28 2.27 2.24 2.21 2.24 2.25 2.29 2.35 2.39 2.31 2.24 2.19 2.13 2.02 1.78 1.59 1.53 1.37 1.26 1.24 1.11 1.02 0.98 0.97 0.94 0.90
1.38 1.65 1.90 2.00 2.22 2.45 2.52 2.59 2.67 2.60 2.62 2.65 2.66 2.74 2.79 2.65 2.39 2.26 2.23 2.18 2.16 2.15 2.15 2.23 2.32 2.40 2.38 2.26 2.16 2.02 1.98 1.88 1.72 1.67 1.51 1.32 1.32 1.23 1.14 1.07 1.03 1.01 1.01